Location: La Bastide
(43.1661°N, 1.2755°E)
Time: 18:10:19
(UTC+00:00)

ISS - Pass Details

Date: 23 February 2026
Orbit: 416 x 427 km, 51.6° (Epoch: 6 March)

Event Time Altitude Azimuth Distance (km) Brightness Sun altitude
Exits shadow 04:49:06 19° 360° (N) 1,051 -1.7 -21.1°
Drops below altitude 10° 04:51:24 10° 43° (NE) 1,496 -0.3 -20.7°
Sets 04:53:54 0° 62° (ENE) 2,358 1.2 -20.2°
